Retour au catalogue

STARLINK-33701

ActifCommunicationsVLEO
NORAD 63464·PAYLOAD·🇺🇸 United States

Lancé Apr 6, 2025 depuis Cape Canaveral Space Force Station

Loading…

Prochains Passages (prochaines 24 heures)

TLE

FraisSource: CelesTrak SupGP

Époque: Sep 14, 2026, 21:40 UTC

1 63464C 25070E   26257.90326389  .00021747  00000+0  78783-3 0  2572
2 63464  42.9997 271.6072 0001465 264.9123 315.0533 15.27560569    10

Suivez STARLINK-33701 en temps réel avec AllMySat

Download on the App Store